Date_and_time,latitude,longitude,wind_speed,RelWindDirFrom,WindDirFrom,air_pressure,air_temperature,relative_humidity,Temp,platform_speed_wrt_ground,air_pressure_at_mean_sea_level,platform_orientation
2019-01-03 00:00,50.6304533333333,-96.980765,10.0,12.9,183,976.26,-8.5,98,0.48,0.0,1004.78,48.3
2019-01-03 00:00,50.6304533333333,-96.980765,11.1,11.5,189,976.23,-8.3,98,0.49,0.0,1004.73,14.5
2019-01-03 00:10,50.63046,-96.980765,10.3,12.4,183,976.16,-8.2,98,0.49,0.0,1004.65,14.5
2019-01-03 00:20,50.6304616666667,-96.9807666666667,9.4,11.9,183,975.98,-8.1,99,0.49,0.0,1004.45,14.5
2019-01-03 00:30,50.6304633333333,-96.9807683333333,10.1,13.9,185,975.92,-8.0,99,0.49,0.0,1004.38,14.5
2019-01-03 00:40,50.6304666666667,-96.980755,10.1,12.8,183,975.80,-7.9,99,0.49,0.0,1004.24,14.5
2019-01-03 00:50,50.63046,-96.98076,10.6,13.1,182,975.71,-7.8,99,0.49,0.0,1004.14,14.5
2019-01-03 01:00,50.6304583333333,-96.980765,9.9,13.1,186,975.56,-7.6,99,0.49,0.0,1003.97,311.7
2019-01-03 01:10,50.630455,-96.9807716666667,12.1,16.2,183,975.23,-7.5,99,0.49,0.0,1003.62,311.7
2019-01-03 01:20,50.6304616666667,-96.98077,12.6,17.3,185,975.09,-7.4,99,0.50,0.0,1003.45,311.7
2019-01-03 01:30,50.63046,-96.9807633333333,13.6,17.3,187,975.09,-7.3,99,0.51,0.0,1003.44,311.7
2019-01-03 01:40,50.6304566666667,-96.9807633333333,13.0,16.5,189,975.29,-7.2,99,0.50,0.0,1003.63,311.7
2019-01-03 01:50,50.6304566666667,-96.9807633333333,13.6,17.1,186,974.91,-7.2,99,0.50,0.0,1003.22,311.7
2019-01-03 02:00,50.6304566666667,-96.980765,13.2,16.5,183,974.53,-7.1,99,0.51,0.0,1002.83,0.0
2019-01-03 02:10,50.630455,-96.9807633333333,13.5,17.2,182,974.29,-7.0,99,0.51,0.0,1002.57,0.0
2019-01-03 02:20,50.630455,-96.9807616666667,13.1,17.7,182,974.18,-6.9,99,0.51,0.0,1002.43,0.0
2019-01-03 02:30,50.630455,-96.9807633333333,12.7,16.1,183,974.00,-6.7,99,0.52,0.0,1002.23,0.0
2019-01-03 02:40,50.630455,-96.9807633333333,13.0,18.3,186,973.82,-6.6,99,0.52,0.0,1002.04,0.0
2019-01-03 02:50,50.6304533333333,-96.9807633333333,13.8,17.9,185,973.48,-6.5,99,0.52,0.0,1001.67,0.0
2019-01-03 03:00,50.6304466666667,-96.9807733333333,14.6,19.2,185,973.21,-6.5,99,0.52,0.0,1001.39,228.3
2019-01-03 03:10,50.6304466666667,-96.980765,14.4,20.2,187,973.17,-6.3,99,0.52,0.0,1001.33,228.3
2019-01-03 03:20,50.6304483333333,-96.98076,13.1,16.7,186,973.27,-6.2,99,0.52,0.0,1001.43,228.3
2019-01-03 03:30,50.63045,-96.98076,11.9,16.1,190,973.42,-6.1,99,0.52,0.0,1001.58,228.3
2019-01-03 03:40,50.63045,-96.9807633333333,11.9,14.9,183,973.15,-6.1,99,0.52,0.0,1001.29,228.3
2019-01-03 03:50,50.6304483333333,-96.9807633333333,12.4,15.0,187,973.13,-5.9,99,0.53,0.0,1001.26,228.3
2019-01-03 04:00,50.6304466666667,-96.980765,12.0,15.1,186,973.00,-5.8,99,0.53,0.0,1001.11,360.0
2019-01-03 04:10,50.6304366666667,-96.9807633333333,12.5,16.0,186,972.67,-5.7,99,0.53,0.0,1000.76,360.0
2019-01-03 04:20,50.6304466666667,-96.98077,12.4,16.0,182,972.17,-5.5,99,0.54,0.0,1000.23,360.0
2019-01-03 04:30,50.63045,-96.9807716666667,13.1,15.8,181,971.74,-5.3,99,0.56,0.0,999.76,360.0
2019-01-03 04:40,50.6304533333333,-96.98077,13.2,16.0,184,971.59,-5.3,99,0.56,0.0,999.61,360.0
2019-01-03 04:50,50.6304533333333,-96.9807683333333,13.6,17.3,179,971.27,-5.3,99,0.55,0.0,999.27,360.0
2019-01-03 05:00,50.630455,-96.9807683333333,14.0,17.7,177,971.03,-5.1,99,0.55,0.0,999.01,0.0
2019-01-03 05:10,50.6304566666667,-96.9807666666667,13.4,17.2,178,970.92,-5.1,99,0.55,0.0,998.90,0.0
2019-01-03 05:20,50.6304566666667,-96.9807666666667,13.6,17.1,181,970.62,-5.2,99,0.55,0.0,998.59,0.0
2019-01-03 05:30,50.6304566666667,-96.9807666666667,13.4,16.4,183,970.28,-5.1,99,0.55,0.0,998.22,0.0
2019-01-03 05:40,50.6304483333333,-96.980785,13.1,16.9,186,970.21,-4.9,99,0.56,0.0,998.14,0.0
2019-01-03 05:50,50.63045,-96.9807833333333,13.7,18.8,187,970.19,-4.8,99,0.56,0.0,998.10,0.0
2019-01-03 06:00,50.6304566666667,-96.9807533333333,12.8,18.4,190,970.29,-4.7,99,0.57,0.0,998.19,68.5
2019-01-03 06:10,50.6304516666667,-96.9807566666667,14.5,19.5,188,970.14,-4.7,99,0.57,0.0,998.03,68.5
2019-01-03 06:20,50.63045,-96.98076,15.0,18.4,186,969.75,-4.9,99,0.56,0.0,997.63,68.5
2019-01-03 06:30,50.6304566666667,-96.9807783333333,15.2,19.3,188,969.42,-5.0,99,0.56,0.0,997.30,68.5
2019-01-03 06:40,50.6304566666667,-96.9807733333333,16.0,20.6,188,969.28,-5.1,99,0.56,0.0,997.16,68.5
2019-01-03 06:50,50.6304566666667,-96.98077,14.1,17.6,190,969.35,-5.2,99,0.56,0.0,997.22,68.5
2019-01-03 07:00,50.630455,-96.98077,13.8,17.1,189,969.16,-5.2,99,0.56,0.0,997.03,38.0
2019-01-03 07:10,50.6304566666667,-96.9807716666667,14.3,18.4,188,968.94,-5.3,99,0.56,0.0,996.81,38.0
2019-01-03 07:20,50.63046,-96.9807966666667,14.5,20.9,190,968.91,-5.2,99,0.57,0.0,996.77,38.0
2019-01-03 07:30,50.6304516666667,-96.9807683333333,11.8,17.6,196,969.38,-5.0,99,0.56,0.0,997.23,38.0
2019-01-03 07:40,50.630445,-96.9807633333333,11.3,15.7,198,969.54,-4.7,99,0.56,0.0,997.38,38.0
2019-01-03 07:50,50.63045,-96.9807616666667,10.5,14.1,195,969.46,-4.7,99,0.56,0.0,997.29,38.0
2019-01-03 08:00,50.6304483333333,-96.9807766666667,11.4,14.1,194,969.18,-4.7,99,0.56,0.0,997.00,228.3
2019-01-03 08:10,50.6304483333333,-96.9807716666667,9.7,12.7,201,969.27,-4.4,99,0.55,0.0,997.08,228.3
2019-01-03 08:20,50.6304533333333,-96.98077,8.9,12.8,208,969.57,-4.1,99,0.56,0.0,997.39,228.3
2019-01-03 08:30,50.6304566666667,-96.98077,8.9,12.2,204,969.63,-4.0,99,0.56,0.0,997.46,228.3
2019-01-03 08:40,50.630455,-96.9807683333333,8.6,12.0,202,969.61,-3.9,99,0.56,0.0,997.43,228.3
2019-01-03 08:50,50.630455,-96.9807733333333,7.4,10.4,200,969.76,-3.9,99,0.56,0.0,997.59,228.3
2019-01-03 09:00,50.6304566666667,-96.9807733333333,7.4,9.2,197,969.77,-3.9,99,0.56,0.0,997.59,270.0
2019-01-03 09:10,50.6304566666667,-96.9807716666667,8.8,11.3,195,969.48,-3.8,99,0.56,0.0,997.28,270.0
2019-01-03 09:20,50.6304316666667,-96.9807616666667,8.4,11.0,198,969.32,-3.8,99,0.56,0.0,997.12,270.0
2019-01-03 09:30,50.630435,-96.9807683333333,8.0,10.3,198,969.24,-3.9,99,0.56,0.0,997.02,270.0
2019-01-03 09:40,50.6304616666667,-96.980795,8.1,10.7,201,969.22,-4.0,99,0.56,0.0,997.01,270.0
2019-01-03 09:50,50.630455,-96.98078,9.2,11.9,200,969.02,-4.0,99,0.57,0.0,996.80,270.0
2019-01-03 10:00,50.63047,-96.98077,10.0,13.7,202,969.03,-4.0,99,0.57,0.0,996.79,360.0
2019-01-03 10:10,50.6304466666667,-96.980775,9.5,12.1,204,968.84,-3.9,99,0.57,0.0,996.58,360.0
2019-01-03 10:20,50.63045,-96.9807716666667,9.1,11.3,205,968.67,-3.7,99,0.58,0.0,996.39,360.0
2019-01-03 10:30,50.6304516666667,-96.9807733333333,5.5,10.0,218,968.82,-3.4,99,0.57,0.0,996.52,360.0
2019-01-03 10:40,50.63045,-96.9807716666667,0.9,4.0,236,968.90,-3.2,99,0.57,0.0,996.59,360.0
2019-01-03 10:50,50.63045,-96.9807733333333,1.5,4.4,160,968.81,-3.0,99,0.57,0.0,996.49,360.0
2019-01-03 11:00,50.6304316666667,-96.9807733333333,4.9,6.1,183,968.65,-3.1,99,0.56,0.0,996.33,161.1
2019-01-03 11:10,50.630445,-96.9807866666667,4.2,5.7,191,968.50,-3.1,99,0.56,0.0,996.17,161.1
2019-01-03 11:20,50.6304433333333,-96.9807616666667,4.6,5.9,190,968.52,-3.0,99,0.56,0.0,996.19,161.1
2019-01-03 11:30,50.6304433333333,-96.9807616666667,3.7,5.5,191,968.55,-2.9,99,0.56,0.0,996.22,161.1
2019-01-03 11:40,50.630445,-96.9807633333333,3.8,4.6,196,968.63,-2.7,99,0.57,0.0,996.29,161.1
2019-01-03 11:50,50.63044,-96.9807766666667,4.1,5.6,201,968.89,-2.5,99,0.57,0.0,996.55,161.1
2019-01-03 12:00,50.630445,-96.98078,4.0,4.6,218,969.32,-2.4,99,0.58,0.0,996.98,216.6
2019-01-03 12:10,50.6304466666667,-96.98078,3.3,4.6,236,969.52,-2.0,99,0.59,0.0,997.16,216.6
2019-01-03 12:20,50.6304466666667,-96.9807783333333,1.8,2.8,212,969.34,-1.9,99,0.60,0.0,996.95,216.6
2019-01-03 12:30,50.630455,-96.9807666666667,3.0,4.2,178,969.15,-2.0,99,0.58,0.0,996.75,216.6
2019-01-03 12:40,50.630455,-96.98076,3.8,4.6,175,969.29,-2.7,99,0.59,0.0,996.92,216.6
2019-01-03 12:50,50.6304383333333,-96.9807616666667,3.2,3.8,195,969.48,-2.9,100,0.60,0.0,997.13,216.6
2019-01-03 13:00,50.6304383333333,-96.9807733333333,4.0,4.5,181,969.34,-2.5,100,0.60,0.0,996.97,360.0
2019-01-03 13:10,50.63044,-96.9807733333333,3.9,4.5,192,969.48,-2.7,100,0.60,0.0,997.12,360.0
2019-01-03 13:20,50.6304416666667,-96.9807733333333,4.1,4.8,195,969.56,-2.6,100,0.60,0.0,997.19,360.0
2019-01-03 13:30,50.6304416666667,-96.9807733333333,4.6,5.5,208,969.75,-2.0,100,0.60,0.0,997.35,360.0
2019-01-03 13:40,50.6304416666667,-96.9807733333333,3.9,5.0,228,969.93,-1.3,100,0.59,0.0,997.49,360.0
2019-01-03 13:50,50.6304416666667,-96.9807733333333,4.3,5.7,240,970.03,-0.6,99,0.60,0.0,997.54,360.0
2019-01-03 14:00,50.63044,-96.9807766666667,4.4,6.6,240,969.88,-0.2,99,0.60,0.0,997.35,360.0
2019-01-03 14:10,50.630445,-96.98077,5.1,7.1,242,969.80,0.0,99,0.60,0.0,997.25,360.0
2019-01-03 14:20,50.630445,-96.98078,5.2,6.7,241,969.76,0.1,99,0.61,0.0,997.21,360.0
2019-01-03 14:30,50.630445,-96.980765,5.2,6.4,242,969.90,0.2,99,0.61,0.0,997.39,360.0
2019-01-03 14:40,50.63044,-96.9807666666667,4.5,6.0,229,969.86,0.2,99,0.61,0.0,997.35,360.0
2019-01-03 14:50,50.6304383333333,-96.980765,4.8,6.1,228,969.76,0.4,99,0.61,0.0,997.22,360.0
2019-01-03 15:00,50.63044,-96.98077,5.0,6.4,235,969.74,0.6,99,0.62,0.0,997.20,90.0
2019-01-03 15:10,50.6304416666667,-96.98077,6.1,7.8,222,969.86,0.7,99,0.61,0.0,997.31,90.0
2019-01-03 15:20,50.6304416666667,-96.98077,6.7,8.4,223,969.97,0.8,99,0.61,0.0,997.39,90.0
2019-01-03 15:30,50.6304433333333,-96.98077,6.4,8.5,229,970.11,1.0,99,0.62,0.0,997.48,90.0
2019-01-03 15:40,50.6304433333333,-96.98077,6.1,8.0,236,970.13,1.1,99,0.63,0.0,997.47,90.0
2019-01-03 15:50,50.6304233333333,-96.9807666666667,6.2,7.8,237,970.06,1.2,99,0.63,0.0,997.37,90.0
2019-01-03 16:00,50.63043,-96.98077,7.2,9.3,238,970.17,1.3,99,0.63,0.0,997.47,360.0
2019-01-03 16:10,50.630435,-96.98077,6.8,9.4,238,970.01,1.3,99,0.64,0.0,997.30,360.0
2019-01-03 16:20,50.6304383333333,-96.9807716666667,6.2,7.7,235,970.10,1.2,99,0.64,0.0,997.39,360.0
2019-01-03 16:30,50.6304366666667,-96.980775,5.8,8.7,234,970.15,1.3,99,0.64,0.0,997.44,360.0
2019-01-03 16:40,50.6304383333333,-96.9807716666667,5.1,6.8,237,970.18,1.3,99,0.64,0.0,997.46,360.0
2019-01-03 16:50,50.6304383333333,-96.9807716666667,5.7,7.6,234,970.43,1.3,99,0.64,0.0,997.71,360.0
2019-01-03 17:00,50.63044,-96.9807733333333,5.8,8.0,236,970.59,1.4,99,0.64,0.0,997.86,0.0
2019-01-03 17:10,50.63044,-96.9807733333333,5.6,7.4,241,970.64,1.5,98,0.64,0.0,997.90,0.0
2019-01-03 17:20,50.63044,-96.9807733333333,5.2,7.4,241,970.55,1.6,98,0.65,0.0,997.79,0.0
2019-01-03 17:30,50.63044,-96.980775,5.0,7.1,237,970.52,1.6,98,0.66,0.0,997.76,0.0
2019-01-03 17:40,50.6304416666667,-96.9807733333333,5.5,7.0,232,970.51,1.7,98,0.66,0.0,997.73,0.0
2019-01-03 17:50,50.6304383333333,-96.9807516666667,5.1,7.5,235,970.58,1.9,97,0.66,0.0,997.80,0.0
2019-01-03 18:00,50.6304716666667,-96.9807733333333,4.9,6.5,229,970.59,2.2,96,0.67,0.0,997.79,360.0
2019-01-03 18:10,50.630445,-96.9807666666667,5.4,7.3,222,970.52,2.3,95,0.67,0.0,997.72,360.0
2019-01-03 18:20,50.6304383333333,-96.9807566666667,5.7,7.3,225,970.32,2.4,95,0.66,0.0,997.50,360.0
2019-01-03 18:30,50.630435,-96.9807683333333,6.1,7.8,220,970.08,2.5,95,0.67,0.0,997.25,360.0
2019-01-03 18:40,50.6304383333333,-96.9807666666667,6.6,8.6,225,970.17,2.6,93,0.67,0.0,997.34,360.0
2019-01-03 18:50,50.6304383333333,-96.9807666666667,6.9,9.1,222,970.17,2.9,91,0.67,0.0,997.32,360.0
2019-01-03 19:00,50.6304383333333,-96.9807683333333,6.5,8.1,218,970.10,3.2,88,0.67,0.0,997.23,360.0
2019-01-03 19:10,50.6304383333333,-96.98077,6.1,8.8,216,969.95,3.7,85,0.68,0.0,997.05,360.0
2019-01-03 19:20,50.63044,-96.98077,6.3,8.7,215,969.83,3.8,83,0.67,0.0,996.91,360.0
2019-01-03 19:30,50.63044,-96.9807716666667,6.5,9.0,209,969.70,3.8,83,0.67,0.0,996.77,360.0
2019-01-03 19:40,50.63044,-96.9807716666667,5.9,7.6,212,969.72,4.2,81,0.67,0.0,996.76,360.0
2019-01-03 19:50,50.63044,-96.9807716666667,5.8,7.9,214,969.78,4.5,79,0.67,0.0,996.80,360.0
2019-01-03 20:00,50.63044,-96.9807716666667,5.0,6.9,214,969.85,4.8,77,0.67,0.0,996.85,0.0
2019-01-03 20:10,50.63044,-96.9807716666667,5.6,7.4,214,969.80,4.6,77,0.67,0.0,996.81,0.0
2019-01-03 20:20,50.63044,-96.9807716666667,6.8,8.5,202,969.70,4.5,78,0.67,0.0,996.70,0.0
2019-01-03 20:30,50.63044,-96.9807733333333,7.3,9.4,199,969.48,4.8,77,0.67,0.0,996.45,0.0
2019-01-03 20:40,50.63044,-96.9807733333333,7.1,9.9,196,969.52,5.0,75,0.67,0.0,996.47,0.0
2019-01-03 20:50,50.63044,-96.9807733333333,9.1,10.2,178,969.34,3.8,84,0.67,0.0,996.33,0.0
2019-01-03 21:00,50.63044,-96.9807783333333,8.2,9.9,187,969.37,3.2,87,0.68,0.0,996.37,360.0
2019-01-03 21:10,50.6304383333333,-96.9807816666667,8.1,10.4,197,969.40,3.4,86,0.68,0.0,996.39,360.0
2019-01-03 21:20,50.6304383333333,-96.980785,8.0,10.3,207,969.64,3.7,84,0.68,0.0,996.61,360.0
2019-01-03 21:30,50.6304266666667,-96.98077,6.5,8.9,217,969.87,3.9,83,0.68,0.0,996.83,360.0
2019-01-03 21:40,50.63043,-96.98078,6.5,8.7,212,969.98,4.0,82,0.68,0.0,996.92,360.0
2019-01-03 21:50,50.6304333333333,-96.9807783333333,6.5,9.0,215,970.14,3.9,83,0.68,0.0,997.07,360.0
2019-01-03 22:00,50.630445,-96.9807833333333,5.9,7.5,216,970.23,3.9,83,0.68,0.0,997.17,270.0
2019-01-03 22:10,50.63043,-96.9807733333333,6.1,8.3,213,970.33,3.7,84,0.68,0.0,997.28,270.0
2019-01-03 22:20,50.630435,-96.980765,6.9,8.7,214,970.40,3.5,85,0.68,0.0,997.35,270.0
2019-01-03 22:30,50.63043,-96.980765,5.6,6.7,215,970.46,3.3,87,0.68,0.0,997.41,270.0
2019-01-03 22:40,50.63043,-96.980765,6.4,8.0,212,970.42,3.2,87,0.68,0.0,997.44,270.0
2019-01-03 22:50,50.6304133333333,-96.9807566666667,6.6,8.1,207,970.41,3.0,88,0.68,0.0,997.46,270.0
2019-01-03 23:00,50.63043,-96.9807683333333,6.4,8.3,212,970.35,2.9,89,0.68,0.0,997.40,360.0
2019-01-03 23:10,50.6304333333333,-96.9807733333333,6.0,7.2,210,970.35,2.7,90,0.68,0.0,997.40,360.0
2019-01-03 23:20,50.630445,-96.980785,8.1,10.2,208,970.33,2.6,91,0.68,0.0,997.38,360.0
2019-01-03 23:30,50.6304383333333,-96.9807733333333,8.5,10.1,209,970.23,2.5,91,0.68,0.0,997.27,360.0
2019-01-03 23:40,50.6304383333333,-96.980775,9.1,11.7,212,970.13,2.5,91,0.68,0.0,997.17,360.0
